CUBESX-HSE 3 (RS42S)

Last updated on Thu Oct 30 2025 00:03:10 GMT+0000 (Coordinated Universal Time)

1 57178U 23091N 25302.45371882 .00017958 00000+0 73880-3 0 9991 2 57178 97.5437 0.8373 0012600 180.7252 179.3969 15.24132213129190
UTC large
Height (km)
Speed (km/s)
/
Latitude / Longitude
Inclination (degrees)
Orbital Period (minutes)
Azimuth
Elevation
Range (km)
Doppler Factor

Next 0 passes for location: London (51.5072 / 0.1276)

Sorry there are no passes over London.